Regional Weather Roundup
Issued by NWS

Home | Current Version | Previous Version | Graphics & Text | Print | Product List | Glossary On
Versions: 1 2 3 4 5 6 7 8 9 10 11 12 13 14 15 16 17 18 19 20 21 22 23 24 25 26 27 28 29 30 31 32 33 34 35 36 37 38 39 40 41 42 43 44 45 46 47 48 49 50
000
ASUS43 KTOP 061759
RWRKS

WEATHER ROUNDUP FOR KANSAS
NATIONAL WEATHER SERVICE GOODLAND KS
100 PM CDT WED MAY 06 2015

NOTE:  "FAIR" INDICATES FEW OR NO CLOUDS BELOW 12,000 FEET WITH NO
SIGNIFICANT WEATHER AND/OR OBSTRUCTIONS TO VISIBILITY.

KSZ001>006-013>018-027>032-041>047-061900-
NORTHWEST KANSAS

CITY           SKY/WX    TMP DP  RH WIND       PRES   REMARKS
GOODLAND       LGT RAIN  58  54  86 S14       29.67F
6HR MIN TEMP:  50; 6HR MAX TEMP:  58; 6HR PCP:  0.01;

HAYS           PTSUNNY   73  57  56 S25G32    29.69F
HILL CITY      CLOUDY    67  56  67 S21G26    29.68F
6HR MIN TEMP:  60; 6HR MAX TEMP:  69;

RUSSELL        CLOUDY    71  64  78 SE24G35   29.70F
6HR MIN TEMP:  59; 6HR MAX TEMP:  71;

$$

KSZ061>065-074>080-084>089-061900-
SOUTHWEST KANSAS

CITY           SKY/WX    TMP DP  RH WIND       PRES   REMARKS
DODGE CITY     PTSUNNY   76  57  51 S26G35    29.69F
6HR MIN TEMP:  56; 6HR MAX TEMP:  76;

ELKHART          N/A     73  50  44 S10         N/A
GARDEN CITY    FAIR      69  54  58 SW20G25   29.69F
6HR MIN TEMP:  49; 6HR MAX TEMP:  69;

GREAT BEND     PTSUNNY   73  63  68 S28G38    29.70F
LIBERAL        FAIR      73  55  53 S24G31    29.73F
$$

KSZ066>073-081>083-090>101-061900-
SOUTHEAST KANSAS

CITY           SKY/WX    TMP DP  RH WIND       PRES   REMARKS
CHANUTE        CLOUDY    67  59  75 SE22G29   29.95F
6HR MIN TEMP:  61; 6HR MAX TEMP:  70; 6HR PCP:  0.01;

COFFEYVILLE    CLOUDY    70  65  84 SE15G21   29.94F
6HR MIN TEMP:  60; 6HR MAX TEMP:  70; 6HR PCP:  0.29;

HUTCHINSON     CLOUDY    69  63  81 SE23G36   29.79F
6HR MIN TEMP:  60; 6HR MAX TEMP:  69; 6HR PCP: TRACE;

MEDICINE LODGE   N/A     77  64  64 S30G39    29.74F
NEWTON         CLOUDY    64  59  82 S24G30    29.86F
PARSONS        CLOUDY    68  65  90 SE7       29.96F
6HR MIN TEMP:  61; 6HR MAX TEMP:  68; 6HR PCP:  0.14;

WICHITA INTL   CLOUDY    66  62  87 SE20      29.83F
6HR MIN TEMP:  60; 6HR MAX TEMP:  66; 6HR PCP:  0.15;

WICHITA JABRA  CLOUDY    66  62  87 SE20G29   29.85F
6HR MIN TEMP:  60; 6HR MAX TEMP:  66; 6HR PCP:  0.14;

WICHITA MCCONL CLOUDY    65  63  90 SE18G26   29.85F
WINFIELD       CLOUDY    68  64  87 SE23G30   29.87F
6HR MIN TEMP:  59; 6HR MAX TEMP:  68;

$$

KSZ007>012-019>026-033>040-048>060-102>105-061900-
NORTHEAST KANSAS

CITY           SKY/WX    TMP DP  RH WIND       PRES   REMARKS
CONCORDIA      CLOUDY    68  61  78 S23G36    29.78F
6HR MIN TEMP:  60; 6HR MAX TEMP:  68; 6HR PCP: TRACE;

EMPORIA        CLOUDY    67  61  81 S25G32    29.90F
6HR MIN TEMP:  59; 6HR MAX TEMP:  68; 6HR PCP:  0.08;

LAWRENCE       CLOUDY    69  60  73 SE14G22   29.94F
6HR MIN TEMP:  64; 6HR MAX TEMP:  70; 6HR PCP:  0.02;

MANHATTAN      CLOUDY    71  62  73 S23G39    29.85S
6HR MIN TEMP:  62; 6HR MAX TEMP:  72; 6HR PCP: TRACE;

OLATHE IND     PTSUNNY   71  60  68 S20       29.97F
6HR MIN TEMP:  64; 6HR MAX TEMP:  71; 6HR PCP: TRACE;

OLATHE EXE     PTSUNNY   70  60  70 S15       29.96F
6HR MIN TEMP:  65; 6HR MAX TEMP:  70; 6HR PCP: TRACE;

SALINA         CLOUDY    69  62  78 S29G38    29.79F
6HR MIN TEMP:  62; 6HR MAX TEMP:  70;

TOPEKA BILLARD FAIR      70  62  76 SE22G29   29.91F
6HR MIN TEMP:  63; 6HR MAX TEMP:  70; 6HR PCP:  0.13;

TOPEKA FORBES  FAIR      71  61  70 S18G29    29.91F
6HR MIN TEMP:  63; 6HR MAX TEMP:  71; 6HR PCP:  0.16;

$$


USA.gov is the U.S. government's official web portal to all federal, state and local government web resources and services.